Regional Weather Roundup
Issued by NWS Goodland, KS

Home | Current Version | Previous Version | Text Only | Print | Product List | Glossary Off
Versions: 1 2 3 4 5 6 7 8 9 10 11 12 13 14 15 16 17 18 19 20 21 22 23 24 25 26 27 28 29 30 31 32 33 34 35 36 37 38 39 40 41 42 43 44 45 46 47 48 49 50

000
ASUS43 KGLD 240459
RWRGLD

GOODLAND FORECAST AREA HOURLY WEATHER ROUNDUP
NATIONAL WEATHER SERVICE GOODLAND KS
1100 PM MDT THU MAR 23 2017

...OFFICIAL OBSERVATIONS...

CITY           SKY/WX    TMP DP  RH WIND       PRES   REMARKS
GOODLAND KS    CLOUDY    59  47  64 SE20G31   29.57R
HILL CITY KS   CLOUDY    57  55  93 VRB3      29.63F
IMPERIAL NEB   MOCLDY    55  48  77 N33G44    29.63R
MCCOOK NEB     CLOUDY    63  47  55 S24G32    29.53R
AKRON CO       LGT RAIN  46  39  76 N32G44    29.67R
BURLINGTON CO  CLOUDY    59  44  57 SE18      29.56F
LIMON CO       CLOUDY    49  39  68 N39G49    29.68R
$$

...UNOFFICIAL OBSERVATIONS...

CITY           SKY/WX    TMP DP  RH WIND       PRES   REMARKS
LENORA KS        N/A     56  32  40 SE8         N/A
NORTON KS      RAIN      55  48  76 E10       29.64F
SHARON SPRINGS   N/A     58  50  74 E16         N/A
TRENTON NEB      N/A     63  32  31 S15G22      N/A
YUMA CO        FAIR      50  37  62 N39G46    29.62F
$$




USA.gov is the U.S. government's official web portal to all federal, state and local government web resources and services.